Weather in Dzerzhinskoe

Russia / Tomsk District     56°31′12″N   84°50′20″E
temp.,
°C
wind,
m/s
gust,
m/s
humid.,
%
clouds,
%
prec.,
mm/h
press.,
hPa
HPBL,
m
13 april, tue
tue1301:00+2w3998100 6.2 1025538
04:00+1wnw2698100 0.1 1025202
07:000nw489392 0.1 1027458
10:000nw3685100 0.0 1029683
13:00+1w3691100 0.0 1030665
16:00+5wnw478548 0.2 1029986
19:00+3w3886100 0.4 1029320
22:00+2w41096100 0.1 1029445
14 april, wed
wed1401:00+2w499396 0.2 1029452
04:00+1wsw41094100 0.1 1028411
07:00+1wsw4998100 0.7 1028435
10:00+1sw51298100 0.8 1025558
13:00+2sw61498100 4.3 1023716
16:00+4wsw71493100 0.5 10201045
19:00+4w51294100 1.1 1020821
22:00+3w41097100 0.1 1022447
15 april, thu
thu1501:00+3w3998100 0.1 1023326
04:00+2w2699100 0.1 1024170
07:00+1wsw24100100 0.1 1024101
10:00+2sw25100100 0.0 1024177
13:00+4sw3698100 0.0 1023357
16:00+6sw4891100 0.0 1021584
19:00+4sw41193100 0.0 1019399
22:00+4sw41197100 0.0 1018353
16 april, fri
fri1601:00
04:00+4sw61397100 0.0 1014485
07:00+5sw51294100 0.0 1013557
10:00+7sw51190100 0.0 1012626
13:00+12sw6117533 0.0 1010805
16:00+13wsw6127298 0.1 10081105
19:00+3n5987100 3.0 1012555
22:00+1nne3897100 1.8 1014464
17 april, sat
sat1701:00+1ne4896100 0.4 1014537
04:00−1ne4878100 0.3 1014731
07:00−3ne5983100 0.6 1014740
10:00−4ne6871100 0.2 1015873
13:00−3ne6871100 0.5 10151008
16:00−3ne5868100 0.2 10151137
19:00−2ne575668 0.2 10161267
22:00−4ne48625 0.0 1018819